Change the Weather History Date:

Wednesday, January 8, 2014

  Actual Average Record
Temperature  
Mean Temperature 23 °F -  
Max Temperature 32 °F 38 °F 64 °F (2006)
Min Temperature 14 °F 24 °F 1 °F (2015)
Degree Days  
Heating Degree Days 42    
Moisture  
Dew Point 15 °F    
Average Humidity 67    
Maximum Humidity 86    
Minimum Humidity 59    
Precipitation  
Precipitation 0.00 in - - ()
Sea Level Pressure  
Sea Level Pressure 30.41 in    
Wind  
Wind Speed 8 mph (South)    
Max Wind Speed 14 mph    
Max Gust Speed 17 mph    
Visibility 10 miles    
Events      
Averages and records for this station are not official NWS values.
T = Trace of Precipitation, MM = Missing Value Source: NWS Daily Summary

Daily Weather History Graph

Daily Weather History Graph

Search for Another Location

Airport or City:

Trip Planner

Search our weather history database for the weather conditions in past years. The results will help you decide how hot, cold, wet, or windy it might be!

Date:

Astronomy

Jan. 08, 2014 Rise Set
Actual Time 8:04 AM EST 5:44 PM EST
Civil Twilight 7:35 AM EST 6:13 PM EST
Nautical Twilight 7:02 AM EST 6:46 PM EST
Astronomical Twilight 6:30 AM EST 7:18 PM EST
Moon 12:34 PM EST (1/8) 1:12 AM EST (1/8)
Length of Visible Light 10h 38m
Length of Day
9h 39m
First Quarter, 56% of the Moon is Illuminated
Jan 8
First Quarter
Jan 15
Full
Jan 24
Last Quarter
Jan 30
New
Feb 6
First Quarter

Hourly Weather History & Observations

Time (EST) Temp. Windchill Dew Point Humidity Pressure Visibility Wind Dir Wind Speed Gust Speed Precip Events Conditions
12:15 AM 14.0 °F 2.9 °F 5.0 °F 67% 30.36 in 10.0 mi SSE 8.1 mph - N/A   Clear
12:35 AM 14.0 °F 2.9 °F 5.0 °F 67% 30.36 in 10.0 mi South 8.1 mph - N/A   Clear
12:55 AM 14.0 °F 2.9 °F 5.0 °F 67% 30.36 in 10.0 mi South 8.1 mph - N/A   Clear
1:15 AM 14.0 °F 3.9 °F 5.0 °F 67% 30.36 in 10.0 mi South 6.9 mph - N/A   Clear
1:35 AM 14.0 °F 2.9 °F 5.0 °F 67% 30.36 in 10.0 mi SSE 8.1 mph - N/A   Clear
1:55 AM 14.0 °F 2.0 °F 5.0 °F 67% 30.35 in 10.0 mi South 9.2 mph - N/A   Clear
2:15 AM 15.8 °F 4.2 °F 6.8 °F 68% 30.36 in 10.0 mi South 9.2 mph - N/A   Clear
2:35 AM 15.8 °F 5.1 °F 6.8 °F 68% 30.37 in 10.0 mi South 8.1 mph - N/A   Clear
2:55 AM 15.8 °F 5.1 °F 6.8 °F 68% 30.37 in 10.0 mi South 8.1 mph - N/A   Clear
3:15 AM 15.8 °F 3.4 °F 6.8 °F 68% 30.37 in 10.0 mi South 10.4 mph - N/A   Clear
3:35 AM 15.8 °F 3.4 °F 6.8 °F 68% 30.37 in 10.0 mi South 10.4 mph - N/A   Clear
3:55 AM 17.6 °F 5.0 °F 8.6 °F 68% 30.37 in 10.0 mi South 11.5 mph 16.1 mph N/A   Mostly Cloudy
4:15 AM 19.4 °F 6.6 °F 8.6 °F 63% 30.36 in 10.0 mi South 12.7 mph 16.1 mph N/A   Overcast
4:35 AM 19.4 °F 6.6 °F 10.4 °F 68% 30.36 in 10.0 mi South 12.7 mph 17.3 mph N/A   Overcast
4:55 AM 19.4 °F 6.0 °F 10.4 °F 68% 30.37 in 10.0 mi South 13.8 mph - N/A   Mostly Cloudy
5:15 AM 19.4 °F 7.9 °F 8.6 °F 63% 30.37 in 10.0 mi South 10.4 mph 17.3 mph N/A   Partly Cloudy
5:35 AM 19.4 °F 7.2 °F 10.4 °F 68% 30.37 in 10.0 mi SSW 11.5 mph 16.1 mph N/A   Clear
5:55 AM 19.4 °F 9.5 °F 10.4 °F 68% 30.37 in 10.0 mi SSW 8.1 mph - N/A   Clear
6:15 AM 19.4 °F 7.9 °F 10.4 °F 68% 30.37 in 10.0 mi South 10.4 mph - N/A   Clear
6:35 AM 19.4 °F 9.5 °F 10.4 °F 68% 30.38 in 10.0 mi South 8.1 mph - N/A   Clear
6:55 AM 19.4 °F 9.5 °F 10.4 °F 68% 30.37 in 10.0 mi South 8.1 mph - N/A   Clear
7:15 AM 19.4 °F 10.4 °F 10.4 °F 68% 30.37 in 10.0 mi South 6.9 mph - N/A   Clear
7:35 AM 19.4 °F 10.4 °F 10.4 °F 68% 30.38 in 10.0 mi South 6.9 mph - N/A   Clear
7:55 AM 19.4 °F 9.5 °F 10.4 °F 68% 30.40 in 10.0 mi South 8.1 mph - N/A   Clear
8:15 AM 19.4 °F 10.4 °F 10.4 °F 68% 30.40 in 10.0 mi South 6.9 mph - N/A   Clear
8:35 AM 19.4 °F 11.5 °F 10.4 °F 68% 30.41 in 10.0 mi South 5.8 mph - N/A   Clear
8:55 AM 19.4 °F 10.4 °F 12.2 °F 74% 30.42 in 10.0 mi South 6.9 mph - N/A   Clear
9:15 AM 21.2 °F 12.6 °F 12.2 °F 68% 30.42 in 10.0 mi South 6.9 mph - N/A   Clear
9:35 AM 21.2 °F 10.9 °F 12.2 °F 68% 30.43 in 10.0 mi South 9.2 mph - N/A   Clear
9:55 AM 23.0 °F 13.1 °F 12.2 °F 63% 30.43 in 10.0 mi South 9.2 mph - N/A   Clear
10:15 AM 24.8 °F 13.4 °F 14.0 °F 64% 30.44 in 10.0 mi South 12.7 mph - N/A   Clear
10:35 AM 24.8 °F 14.0 °F 14.0 °F 64% 30.44 in 10.0 mi South 11.5 mph - N/A   Clear
10:55 AM 24.8 °F 14.6 °F 14.0 °F 64% 30.45 in 10.0 mi SSW 10.4 mph - N/A   Clear
11:15 AM 26.6 °F 15.7 °F 14.0 °F 59% 30.46 in 10.0 mi SSW 12.7 mph - N/A   Clear
11:35 AM 26.6 °F 17.5 °F 14.0 °F 59% 30.45 in 10.0 mi SSW 9.2 mph - N/A   Clear
11:55 AM 26.6 °F 15.7 °F 15.8 °F 64% 30.45 in 10.0 mi SW 12.7 mph - N/A   Clear
12:15 PM 26.6 °F 16.8 °F 15.8 °F 64% 30.44 in 10.0 mi SSW 10.4 mph - N/A   Clear
12:35 PM 28.4 °F 19.7 °F 17.6 °F 64% 30.42 in 10.0 mi SSW 9.2 mph - N/A   Clear
12:55 PM 28.4 °F 19.1 °F 17.6 °F 64% 30.42 in 10.0 mi SSW 10.4 mph - N/A   Clear
1:15 PM 28.4 °F 19.7 °F 17.6 °F 64% 30.40 in 10.0 mi South 9.2 mph - N/A   Clear
1:35 PM 28.4 °F 19.7 °F 17.6 °F 64% 30.40 in 10.0 mi South 9.2 mph - N/A   Clear
1:55 PM 30.2 °F 20.8 °F 17.6 °F 60% 30.39 in 10.0 mi South 11.5 mph - N/A   Clear
2:15 PM 30.2 °F 22.6 °F 17.6 °F 60% 30.39 in 10.0 mi South 8.1 mph - N/A   Clear
2:35 PM 30.2 °F 21.9 °F 17.6 °F 60% 30.39 in 10.0 mi South 9.2 mph - N/A   Clear
2:55 PM 30.2 °F 23.4 °F 19.4 °F 64% 30.40 in 10.0 mi South 6.9 mph - N/A   Clear
3:15 PM 30.2 °F 24.3 °F 19.4 °F 64% 30.40 in 10.0 mi South 5.8 mph - N/A   Clear
3:35 PM 30.2 °F 24.3 °F 19.4 °F 64% 30.39 in 10.0 mi SSE 5.8 mph - N/A   Clear
3:55 PM 30.2 °F 23.4 °F 19.4 °F 64% 30.40 in 10.0 mi SSE 6.9 mph - N/A   Clear
4:15 PM 30.2 °F 23.4 °F 19.4 °F 64% 30.40 in 10.0 mi South 6.9 mph - N/A   Clear
4:35 PM 30.2 °F 24.3 °F 19.4 °F 64% 30.41 in 10.0 mi South 5.8 mph - N/A   Clear
4:55 PM 32.0 °F 26.4 °F 19.4 °F 60% 30.41 in 10.0 mi South 5.8 mph - N/A   Partly Cloudy
5:15 PM 30.2 °F 26.7 °F 19.4 °F 64% 30.40 in 10.0 mi South 3.5 mph - N/A   Clear
5:35 PM 30.2 °F - 19.4 °F 64% 30.42 in 10.0 mi Calm Calm - N/A   Clear
5:55 PM 30.2 °F 26.7 °F 19.4 °F 64% 30.42 in 10.0 mi SW 3.5 mph - N/A   Clear
6:15 PM 30.2 °F 26.7 °F 19.4 °F 64% 30.43 in 10.0 mi SSW 3.5 mph - N/A   Clear
6:35 PM 30.2 °F 26.7 °F 19.4 °F 64% 30.43 in 10.0 mi SSW 3.5 mph - N/A   Mostly Cloudy
6:55 PM 30.2 °F - 19.4 °F 64% 30.44 in 10.0 mi Calm Calm - N/A   Scattered Clouds
7:15 PM 30.2 °F - 21.2 °F 69% 30.44 in 10.0 mi Calm Calm - N/A   Partly Cloudy
7:35 PM 30.2 °F 26.7 °F 21.2 °F 69% 30.44 in 10.0 mi NNW 3.5 mph - N/A   Clear
7:55 PM 30.2 °F - 21.2 °F 69% 30.44 in 10.0 mi Calm Calm - N/A   Mostly Cloudy
8:15 PM 30.2 °F 26.7 °F 21.2 °F 69% 30.44 in 10.0 mi ENE 3.5 mph - N/A   Overcast
8:35 PM 30.2 °F 26.7 °F 21.2 °F 69% 30.45 in 10.0 mi ENE 3.5 mph - N/A   Mostly Cloudy
8:55 PM 30.2 °F 26.7 °F 21.2 °F 69% 30.45 in 10.0 mi East 3.5 mph - N/A   Overcast
9:15 PM 30.2 °F 26.7 °F 21.2 °F 69% 30.45 in 10.0 mi East 3.5 mph - N/A   Overcast
9:35 PM 30.2 °F - 23.0 °F 75% 30.45 in 10.0 mi Calm Calm - N/A   Overcast
9:55 PM 30.2 °F - 24.8 °F 80% 30.45 in 10.0 mi Calm Calm - N/A   Overcast
10:15 PM 30.2 °F 26.7 °F 23.0 °F 75% 30.45 in 10.0 mi NNE 3.5 mph - N/A   Overcast
10:35 PM 30.2 °F - 23.0 °F 75% 30.46 in 10.0 mi Calm Calm - N/A   Overcast
10:55 PM 28.4 °F 24.6 °F 23.0 °F 80% 30.46 in 10.0 mi NNE 3.5 mph - N/A   Overcast
11:15 PM 28.4 °F - 24.8 °F 86% 30.46 in 10.0 mi Calm Calm - N/A   Overcast
11:35 PM 28.4 °F - 24.8 °F 86% 30.46 in 10.0 mi Calm Calm - N/A   Overcast
11:55 PM 28.4 °F 24.6 °F 23.0 °F 80% 30.46 in 10.0 mi ESE 3.5 mph - N/A   Overcast